SVA195 OEDF-OERK

Flight info

Callsign SVA195
Flight time N/A
Altitude 30000
Route EMUSA Q212 ASNUM
Aircraft E195/M-SDE3GILORVW/S

Departure

Time 2026-04-22 16:41
Airport King Fahd International Airport (OEDF)

Arrival

Time N/A
Airport King Khalid International Airport (OERK)
Time Latitude Longitude Altitude Speed Heading
2026-04-22 16:06 26.46155 49.79441 63 ft 0 kts 265°
2026-04-22 16:27 26.46155 49.79440 63 ft 0 kts 265°
2026-04-22 16:28 26.46155 49.79441 63 ft 0 kts 266°
2026-04-22 16:28 26.46155 49.79442 63 ft 1 kts 266°
2026-04-22 16:29 26.46156 49.79458 63 ft 2 kts 265°
2026-04-22 16:29 26.46157 49.79475 63 ft 2 kts 265°
2026-04-22 16:29 26.46159 49.79492 63 ft 2 kts 265°
2026-04-22 16:29 26.46160 49.79509 63 ft 2 kts 265°
2026-04-22 16:30 26.46160 49.79512 63 ft 0 kts 265°
2026-04-22 16:30 26.46164 49.79523 63 ft 1 kts 212°
2026-04-22 16:30 26.46171 49.79526 63 ft 0 kts 175°
2026-04-22 16:30 26.46178 49.79525 63 ft 0 kts 173°
2026-04-22 16:34 26.46177 49.79525 63 ft 0 kts 173°
2026-04-22 16:34 26.46176 49.79525 63 ft 0 kts 173°
2026-04-22 16:34 26.46174 49.79525 63 ft 0 kts 174°
2026-04-22 16:35 26.46168 49.79526 63 ft 1 kts 173°
2026-04-22 16:35 26.46154 49.79528 63 ft 2 kts 170°
2026-04-22 16:35 26.46129 49.79534 63 ft 4 kts 167°
2026-04-22 16:35 26.46098 49.79543 63 ft 4 kts 166°
2026-04-22 16:36 26.46063 49.79553 63 ft 5 kts 166°
2026-04-22 16:36 26.46023 49.79564 63 ft 5 kts 166°
2026-04-22 16:36 26.45985 49.79573 63 ft 3 kts 183°
2026-04-22 16:36 26.45967 49.79562 63 ft 3 kts 218°
2026-04-22 16:37 26.45947 49.79530 62 ft 7 kts 245°
2026-04-22 16:37 26.45925 49.79457 60 ft 11 kts 253°
2026-04-22 16:37 26.45884 49.79395 59 ft 6 kts 194°
2026-04-22 16:37 26.45847 49.79395 59 ft 5 kts 170°
2026-04-22 16:38 26.45804 49.79406 59 ft 7 kts 165°
2026-04-22 16:38 26.45750 49.79422 59 ft 9 kts 165°
2026-04-22 16:38 26.45682 49.79441 59 ft 9 kts 173°
2026-04-22 16:38 26.45633 49.79429 59 ft 4 kts 219°
2026-04-22 16:39 26.45615 49.79401 58 ft 4 kts 246°
2026-04-22 16:39 26.45604 49.79367 58 ft 5 kts 251°
2026-04-22 16:39 26.45588 49.79308 58 ft 9 kts 254°
2026-04-22 16:39 26.45570 49.79220 58 ft 10 kts 278°
2026-04-22 16:40 26.45613 49.79150 59 ft 12 kts 335°
2026-04-22 16:40 26.45780 49.79096 60 ft 58 kts 341°
2026-04-22 16:40 26.47530 49.78542 473 ft 167 kts 344°
2026-04-22 16:41 26.48701 49.78058 762 ft 192 kts 340°
2026-04-22 16:41 26.50022 49.77396 1097 ft 208 kts 337°
2026-04-22 16:41 26.51320 49.76706 1539 ft 207 kts 346°
2026-04-22 16:41 26.52679 49.76570 2132 ft 185 kts 17°
2026-04-22 16:42 26.53826 49.77192 2378 ft 183 kts 35°
2026-04-22 16:42 26.54934 49.77781 2753 ft 166 kts 14°
2026-04-22 16:42 26.56077 49.77836 2860 ft 171 kts
2026-04-22 16:42 26.57307 49.77642 2877 ft 171 kts 343°
2026-04-22 16:43 26.58423 49.77153 2654 ft 168 kts 343°
2026-04-22 16:43 26.59617 49.76597 3078 ft 195 kts 334°
2026-04-22 16:43 26.60796 49.75607 3507 ft 239 kts 324°
2026-04-22 16:43 26.62323 49.74274 3331 ft 302 kts 325°
2026-04-22 16:44 26.63899 49.72907 3854 ft 264 kts 324°
2026-04-22 16:44 26.65334 49.71642 3860 ft 255 kts 324°
2026-04-22 16:44 26.66693 49.70385 4363 ft 246 kts 321°
2026-04-22 16:44 26.67963 49.69059 4447 ft 245 kts 318°
2026-04-22 16:45 26.69150 49.67672 4501 ft 244 kts 315°
2026-04-22 16:45 26.70323 49.66202 4084 ft 264 kts 314°
2026-04-22 16:45 26.71535 49.64571 4113 ft 261 kts 311°
2026-04-22 16:45 26.72629 49.62980 4329 ft 253 kts 309°
2026-04-22 16:46 26.73661 49.61364 4264 ft 259 kts 305°
2026-04-22 16:46 26.74471 49.59439 3885 ft 276 kts 291°
2026-04-22 16:46 26.75004 49.57361 3891 ft 263 kts 287°
2026-04-22 16:46 26.75392 49.55396 3732 ft 255 kts 285°
2026-04-22 16:47 26.75712 49.53467 3692 ft 243 kts 284°
2026-04-22 16:47 26.76008 49.51595 3374 ft 245 kts 284°
2026-04-22 16:47 26.76339 49.49644 2897 ft 251 kts 285°
2026-04-22 16:47 26.76468 49.47722 2826 ft 243 kts 268°
2026-04-22 16:48 26.76043 49.45896 2668 ft 240 kts 252°
2026-04-22 16:48 26.75400 49.44189 2649 ft 222 kts 251°
2026-04-22 16:48 26.74833 49.42650 3033 ft 216 kts 253°
2026-04-22 16:48 26.74376 49.40962 3398 ft 232 kts 261°
2026-04-22 16:49 26.74148 49.39129 3939 ft 239 kts 272°
2026-04-22 16:49 26.74207 49.37278 4589 ft 245 kts 271°
2026-04-22 16:49 26.73992 49.35284 4480 ft 260 kts 259°
2026-04-22 16:49 26.73475 49.33316 4203 ft 264 kts 252°
2026-04-22 16:50 26.72763 49.31359 3652 ft 281 kts 246°
2026-04-22 16:50 26.71769 49.29265 2172 ft 326 kts 242°
2026-04-22 16:50 26.70604 49.27081 1804 ft 302 kts 243°
2026-04-22 16:50 26.69783 49.25348 3151 ft 228 kts 248°
2026-04-22 16:51 26.69057 49.23727 2657 ft 234 kts 238°
2026-04-22 16:51 26.68763 49.22036 2028 ft 223 kts 278°
2026-04-22 16:51 26.68618 49.20395 2226 ft 194 kts 268°
2026-04-22 16:51 26.68433 49.18913 1894 ft 200 kts 264°
2026-04-22 16:52 26.68099 49.17282 1427 ft 216 kts 258°
2026-04-22 16:52 26.67624 49.15481 1613 ft 276 kts 256°
2026-04-22 16:52 26.67002 49.13196 1899 ft 321 kts 256°
2026-04-22 16:52 26.66390 49.11036 2994 ft 263 kts 255°
2026-04-22 16:53 26.65823 49.09072 2398 ft 280 kts 255°
2026-04-22 16:53 26.65188 49.06820 928 ft 312 kts 255°
2026-04-22 16:53 26.64604 49.04740 1830 ft 258 kts 256°
2026-04-22 16:53 26.64078 49.02781 1085 ft 280 kts 257°
2026-04-22 16:54 26.63636 49.00929 2011 ft 194 kts 261°
2026-04-22 16:54 26.63363 48.99706 2257 ft 169 kts 262°
2026-04-22 16:54 26.63063 48.98111 1349 ft 265 kts 262°
2026-04-22 16:54 26.62651 48.95788 1430 ft 316 kts 260°
2026-04-22 16:55 26.62208 48.93826 4496 ft 247 kts 256°
2026-04-22 16:55 26.61756 48.92287 6366 ft 210 kts 251°
2026-04-22 16:55 26.61167 48.90562 6445 ft 257 kts 251°
2026-04-22 16:55 26.60764 48.88724 7952 ft 233 kts 263°
2026-04-22 16:56 26.60722 48.87129 9524 ft 201 kts 269°
2026-04-22 16:56 26.60637 48.85366 9213 ft 267 kts 261°
2026-04-22 16:56 26.60547 48.83679 11141 ft 185 kts 308°
2026-04-22 16:56 26.61030 48.83130 12712 ft 116 kts 304°
2026-04-22 16:57 26.61823 48.82088 9583 ft 324 kts 305°
2026-04-22 16:57 26.62803 48.80221 9105 ft 340 kts 288°
2026-04-22 17:02 26.63029 48.79455 10518 ft 305 kts 283°
2026-04-22 17:03 26.63293 48.77837 13981 ft 200 kts 271°
2026-04-22 17:03 26.63222 48.76576 15467 ft 151 kts 256°
2026-04-22 17:03 26.62808 48.75415 15478 ft 186 kts 243°
2026-04-22 17:03 26.61948 48.74037 15114 ft 223 kts 232°
2026-04-22 17:04 26.60901 48.72887 16121 ft 191 kts 225°
2026-04-22 17:04 26.59810 48.72069 16449 ft 197 kts 213°
2026-04-22 17:04 26.58388 48.71560 16483 ft 221 kts 197°
2026-04-22 17:04 26.56754 48.71482 16558 ft 246 kts 183°
2026-04-22 17:05 26.54977 48.71867 16632 ft 271 kts 170°
2026-04-22 17:05 26.53133 48.72751 16704 ft 297 kts 158°
2026-04-22 17:05 26.51353 48.74115 16780 ft 321 kts 146°
2026-04-22 17:05 26.49654 48.75882 16866 ft 340 kts 144°
2026-04-22 17:06 26.47785 48.77657 17032 ft 353 kts 146°
2026-04-22 17:06 26.45885 48.79454 17450 ft 358 kts 146°
2026-04-22 17:06 26.43968 48.81267 17879 ft 362 kts 146°
2026-04-22 17:06 26.42039 48.83090 18353 ft 365 kts 146°
2026-04-22 17:07 26.40085 48.84938 18814 ft 368 kts 146°
2026-04-22 17:07 26.38090 48.86827 19279 ft 371 kts 146°
2026-04-22 17:07 26.36106 48.88705 19750 ft 373 kts 146°
2026-04-22 17:07 26.34113 48.90596 20168 ft 376 kts 146°
2026-04-22 17:08 26.32096 48.92506 20657 ft 376 kts 147°
2026-04-22 17:08 26.29787 48.93516 20626 ft 346 kts 189°
2026-04-22 17:08 26.28469 48.93532 20691 ft 356 kts 178°